When you browse on this site, cookies collect data to enhance your experience and personalize the content and advertising you see.
Visit our Privacy Policy to learn more. By continuing to use the site, you agree to this use of cookies and data.
  • In Österreich
  • Länderverzeichnis
  • Für 7 Tage
  • Wassertemperatur
  • Wetterkarte
  • News
  • Widgets
  • user-avatar
    Anmelden

    Stündliche Wetter Cobija

    Heute, 26 Februar, Mittwoch

    Zeit Temperatur Niederschläge Wind Luftdruck Luftfeuchtigkeit
    00:00 +25°C° 0.1 mm 1 m/S 737 mmHg 95%
    01:00 +25°C° 0 mm 1 m/S 737 mmHg 96%
    02:00 +25°C° 0 mm 1 m/S 737 mmHg 96%
    03:00 +25°C° 0 mm 1 m/S 737 mmHg 97%
    04:00 +24°C° 0 mm 1 m/S 737 mmHg 97%
    05:00 +25°C° 0 mm 1 m/S 737 mmHg 95%
    06:00 +25°C° 0 mm 1 m/S 738 mmHg 94%
    07:00 +26°C° 0 mm 1 m/S 738 mmHg 92%
    08:00 +28°C° 0 mm 1 m/S 739 mmHg 81%
    09:00 +30°C° 0 mm 1 m/S 739 mmHg 71%
    10:00 +33°C° 0 mm 1 m/S 739 mmHg 60%
    11:00 +34°C° 0.1 mm 1 m/S 739 mmHg 56%
    12:00 +35°C° 0.1 mm 1 m/S 738 mmHg 51%
    13:00 +36°C° 0.1 mm 1 m/S 737 mmHg 47%
    14:00 +35°C° 0.1 mm 1 m/S 736 mmHg 53%
    15:00 +34°C° 0.1 mm 1 m/S 735 mmHg 59%
    16:00 +31°C° 0.1 mm 0 m/S 734 mmHg 65%
    17:00 +30°C° 0.1 mm 0 m/S 734 mmHg 71%
    18:00 +28°C° 0.1 mm 0 m/S 735 mmHg 77%
    19:00 +26°C° 0.1 mm 0 m/S 735 mmHg 83%
    20:00 +26°C° 0.3 mm 0 m/S 736 mmHg 85%
    21:00 +27°C° 0.3 mm 1 m/S 737 mmHg 88%
    22:00 +27°C° 0.3 mm 1 m/S 738 mmHg 90%
    23:00 +24°C° 0.8 mm 0 m/S 738 mmHg 92%

    Morgen, 27 Februar, Donnerstag

    Zeit Temperatur Niederschläge Wind Luftdruck Luftfeuchtigkeit
    00:00 +24°C° 0.8 mm 0 m/S 737 mmHg 93%
    01:00 +24°C° 0.8 mm 0 m/S 737 mmHg 94%
    02:00 +23°C° 2.5 mm 0 m/S 737 mmHg 96%
    03:00 +25°C° 2.5 mm 1 m/S 737 mmHg 97%
    04:00 +25°C° 2.5 mm 1 m/S 737 mmHg 99%
    05:00 +25°C° 2.6 mm 1 m/S 738 mmHg 99%
    06:00 +25°C° 2.6 mm 1 m/S 738 mmHg 99%
    07:00 +25°C° 2.6 mm 1 m/S 739 mmHg 99%
    08:00 +26°C° 0.5 mm 1 m/S 739 mmHg 97%
    09:00 +26°C° 0.5 mm 1 m/S 740 mmHg 95%
    10:00 +27°C° 0.5 mm 1 m/S 740 mmHg 94%
    11:00 +27°C° 1.9 mm 1 m/S 739 mmHg 94%
    12:00 +27°C° 1.9 mm 2 m/S 739 mmHg 94%
    13:00 +27°C° 1.9 mm 2 m/S 738 mmHg 94%
    14:00 +26°C° 0.4 mm 2 m/S 738 mmHg 94%
    15:00 +26°C° 0.4 mm 1 m/S 737 mmHg 94%
    16:00 +26°C° 0.4 mm 1 m/S 737 mmHg 94%
    17:00 +25°C° 0 mm 1 m/S 737 mmHg 95%
    18:00 +23°C° 0 mm 0 m/S 737 mmHg 96%
    19:00 +23°C° 0 mm 0 m/S 738 mmHg 97%
    20:00 +23°C° 0 mm 0 m/S 738 mmHg 97%
    21:00 +22°C° 0 mm 0 m/S 739 mmHg 97%
    22:00 +24°C° 0 mm 1 m/S 739 mmHg 98%
    23:00 +24°C° 0.1 mm 1 m/S 739 mmHg 98%

    übermorgen, 28 Februar, Freitag

    Zeit Temperatur Niederschläge Wind Luftdruck Luftfeuchtigkeit
    00:00 +22°C° 0.1 mm 0 m/S 738 mmHg 98%
    01:00 +22°C° 0.1 mm 0 m/S 738 mmHg 98%
    02:00 +22°C° 0.2 mm 0 m/S 738 mmHg 98%
    03:00 +22°C° 0.2 mm 0 m/S 737 mmHg 98%
    04:00 +21°C° 0.2 mm 0 m/S 737 mmHg 98%
    05:00 +22°C° 0.3 mm 0 m/S 738 mmHg 98%
    06:00 +22°C° 0.3 mm 0 m/S 738 mmHg 97%
    07:00 +23°C° 0.3 mm 0 m/S 739 mmHg 96%
    08:00 +25°C° 0 mm 0 m/S 739 mmHg 86%
    09:00 +27°C° 0 mm 0 m/S 739 mmHg 76%
    10:00 +29°C° 0 mm 0 m/S 740 mmHg 66%
    11:00 +29°C° 0 mm 0 m/S 739 mmHg 68%
    12:00 +31°C° 0 mm 1 m/S 738 mmHg 69%
    13:00 +30°C° 0 mm 1 m/S 737 mmHg 71%
    14:00 +31°C° 0.2 mm 1 m/S 736 mmHg 70%
    15:00 +31°C° 0.2 mm 1 m/S 735 mmHg 69%
    16:00 +32°C° 0.2 mm 1 m/S 735 mmHg 68%
    17:00 +30°C° 0.3 mm 1 m/S 735 mmHg 76%
    18:00 +28°C° 0.3 mm 1 m/S 736 mmHg 83%
    19:00 +26°C° 0.3 mm 1 m/S 736 mmHg 91%
    20:00 +26°C° 0.3 mm 1 m/S 737 mmHg 93%
    21:00 +25°C° 0.3 mm 1 m/S 738 mmHg 95%
    22:00 +25°C° 0.3 mm 1 m/S 739 mmHg 96%
    23:00 +25°C° 0 mm 1 m/S 738 mmHg 97%

    29 Februar, Samstag

    Zeit Temperatur Niederschläge Wind Luftdruck Luftfeuchtigkeit
    00:00 +24°C° 0 mm 1 m/S 738 mmHg 98%
    01:00 +22°C° 0 mm 0 m/S 738 mmHg 99%
    02:00 +22°C° 0.1 mm 0 m/S 738 mmHg 99%
    03:00 +22°C° 0.1 mm 0 m/S 738 mmHg 99%
    04:00 +22°C° 0.1 mm 0 m/S 738 mmHg 99%
    05:00 +22°C° 0.4 mm 0 m/S 738 mmHg 99%
    06:00 +23°C° 0.4 mm 0 m/S 739 mmHg 99%
    07:00 +23°C° 0.4 mm 0 m/S 740 mmHg 99%
    08:00 +25°C° 0 mm 0 m/S 740 mmHg 90%
    09:00 +27°C° 0 mm 0 m/S 740 mmHg 82%
    10:00 +28°C° 0 mm 0 m/S 740 mmHg 74%
    11:00 +31°C° 1.3 mm 1 m/S 739 mmHg 76%
    12:00 +31°C° 1.3 mm 1 m/S 739 mmHg 78%
    13:00 +31°C° 1.3 mm 1 m/S 738 mmHg 79%
    14:00 +31°C° 2 mm 1 m/S 737 mmHg 84%
    15:00 +30°C° 2 mm 1 m/S 737 mmHg 89%
    16:00 +27°C° 2 mm 0 m/S 736 mmHg 93%
    17:00 +26°C° 1.4 mm 0 m/S 737 mmHg 94%
    18:00 +25°C° 1.4 mm 0 m/S 737 mmHg 96%
    19:00 +24°C° 1.4 mm 0 m/S 738 mmHg 97%
    20:00 +24°C° 1.3 mm 0 m/S 738 mmHg 97%
    21:00 +23°C° 1.3 mm 0 m/S 739 mmHg 98%
    22:00 +23°C° 1.3 mm 0 m/S 739 mmHg 98%
    23:00 +23°C° 3.5 mm 0 m/S 739 mmHg 98%

    1 März, Sonntag

    Zeit Temperatur Niederschläge Wind Luftdruck Luftfeuchtigkeit
    00:00 +23°C° 3.5 mm 0 m/S 739 mmHg 99%
    01:00 +25°C° 3.5 mm 1 m/S 738 mmHg 99%
    02:00 +25°C° 1.7 mm 1 m/S 738 mmHg 99%
    03:00 +25°C° 1.7 mm 1 m/S 738 mmHg 99%
    04:00 +24°C° 1.7 mm 1 m/S 738 mmHg 99%
    05:00 +25°C° 0.6 mm 1 m/S 738 mmHg 99%
    06:00 +23°C° 0.6 mm 0 m/S 739 mmHg 99%
    07:00 +23°C° 0.6 mm 0 m/S 740 mmHg 99%
    08:00 +24°C° 0.1 mm 0 m/S 740 mmHg 92%
    09:00 +26°C° 0.1 mm 0 m/S 741 mmHg 86%
    10:00 +27°C° 0.1 mm 0 m/S 741 mmHg 80%
    11:00 +28°C° 0.6 mm 0 m/S 740 mmHg 79%
    12:00 +30°C° 0.6 mm 1 m/S 740 mmHg 79%
    13:00 +31°C° 0.6 mm 1 m/S 739 mmHg 78%
    14:00 +30°C° 1.5 mm 1 m/S 738 mmHg 84%
    15:00 +27°C° 1.5 mm 0 m/S 738 mmHg 89%
    16:00 +26°C° 1.5 mm 0 m/S 737 mmHg 95%
    17:00 +25°C° 0.3 mm 0 m/S 737 mmHg 96%
    18:00 +24°C° 0.3 mm 0 m/S 737 mmHg 97%
    19:00 +24°C° 0.3 mm 0 m/S 737 mmHg 98%
    20:00 +23°C° 0 mm 0 m/S 738 mmHg 98%
    21:00 +23°C° 0 mm 0 m/S 738 mmHg 98%
    22:00 +23°C° 0 mm 0 m/S 739 mmHg 98%
    23:00 +23°C° 0 mm 0 m/S 738 mmHg 98%

    2 März, Montag

    Zeit Temperatur Niederschläge Wind Luftdruck Luftfeuchtigkeit
    00:00 +23°C° 0 mm 0 m/S 738 mmHg 98%
    01:00 +23°C° 0 mm 0 m/S 738 mmHg 98%
    02:00 +25°C° 0.1 mm 1 m/S 738 mmHg 98%
    03:00 +25°C° 0.1 mm 1 m/S 738 mmHg 98%
    04:00 +24°C° 0.1 mm 1 m/S 737 mmHg 98%
    05:00 +24°C° 0 mm 1 m/S 738 mmHg 97%
    06:00 +24°C° 0 mm 1 m/S 738 mmHg 97%
    07:00 +25°C° 0 mm 1 m/S 739 mmHg 96%
    08:00 +25°C° 0 mm 0 m/S 739 mmHg 85%
    09:00 +27°C° 0 mm 0 m/S 739 mmHg 75%
    10:00 +29°C° 0 mm 0 m/S 739 mmHg 65%
    11:00 +33°C° 0 mm 1 m/S 738 mmHg 58%
    12:00 +34°C° 0 mm 1 m/S 738 mmHg 52%
    13:00 +36°C° 0 mm 1 m/S 737 mmHg 45%
    14:00 +35°C° 0 mm 1 m/S 736 mmHg 48%
    15:00 +35°C° 0 mm 1 m/S 735 mmHg 51%
    16:00 +34°C° 0 mm 1 m/S 734 mmHg 53%
    17:00 +32°C° 0 mm 1 m/S 735 mmHg 61%
    18:00 +28°C° 0 mm 0 m/S 735 mmHg 69%
    19:00 +26°C° 0 mm 0 m/S 735 mmHg 77%
    20:00 +26°C° 0.1 mm 0 m/S 736 mmHg 79%
    21:00 +27°C° 0.1 mm 1 m/S 736 mmHg 82%
    22:00 +27°C° 0.1 mm 1 m/S 737 mmHg 84%
    23:00 +24°C° 0 mm 0 m/S 737 mmHg 87%
    Mehr zeigen